This is the latest recevied weather packets stored in our database for station/object DB0SMU-12. If no packets are shown the sender has not sent any weather packets the latest 1 day(s).
| Time | Temp. | Humidity | Pressure | Rain* | Wind** | Luminosity | Snow |
|---|---|---|---|---|---|---|---|
| 1777966823 | 15.56° C | 68% | 1010.2 hPa | 0 mm | 0.45 m/s, 86° | - | - |
| 1777966642 | 15.56° C | 67% | 1010.3 hPa | 0 mm | 0.89 m/s, 301° | - | - |
| 1777966461 | 15.56° C | 66% | 1010.3 hPa | 0 mm | 0.45 m/s, 30° | - | - |
| 1777966280 | 15.56° C | 68% | 1010.4 hPa | 0 mm | 0.89 m/s, 293° | - | - |
| 1777966099 | 15.56° C | 69% | 1010.5 hPa | 0 mm | 1.79 m/s, 266° | - | - |
| 1777965918 | 15° C | 72% | 1010.5 hPa | 0 mm | 1.34 m/s, 249° | - | - |
| 1777965737 | 15° C | 72% | 1010.5 hPa | 0 mm | 2.24 m/s, 236° | - | - |
| 1777965556 | 15° C | 72% | 1010.5 hPa | 0 mm | 1.34 m/s, 254° | - | - |
| 1777965376 | 14.44° C | 72% | 1010.5 hPa | 0 mm | 0.89 m/s, 262° | - | - |
| 1777965194 | 14.44° C | 73% | 1010.5 hPa | 0 mm | 1.79 m/s, 236° | - | - |
| 1777965014 | 14.44° C | 74% | 1010.6 hPa | 0 mm | 2.24 m/s, 220° | - | - |
| 1777964832 | 14.44° C | 75% | 1010.7 hPa | 0 mm | 1.34 m/s, 219° | - | - |
| 1777964471 | 13.89° C | 76% | 1010.7 hPa | 0 mm | 2.68 m/s, 229° | - | - |
| 1777964290 | 13.89° C | 76% | 1010.8 hPa | 0 mm | 3.13 m/s, 234° | - | - |
| 1777964109 | 13.89° C | 77% | 1010.8 hPa | 0 mm | 3.13 m/s, 225° | - | - |
| 1777963928 | 13.89° C | 76% | 1010.7 hPa | 0 mm | 3.58 m/s, 231° | - | - |
| 1777963747 | 13.89° C | 78% | 1010.8 hPa | 0 mm | 4.02 m/s, 229° | - | - |
| 1777963566 | 13.33° C | 77% | 1010.7 hPa | 0 mm | 4.02 m/s, 228° | - | - |
| 1777963385 | 13.33° C | 77% | 1010.7 hPa | 0 mm | 3.58 m/s, 235° | - | - |
| 1777963204 | 13.33° C | 77% | 1010.7 hPa | 0 mm | 3.13 m/s, 237° | - | - |
| 1777963023 | 13.33° C | 77% | 1010.7 hPa | 0 mm | 3.58 m/s, 231° | - | - |
| 1777962842 | 13.33° C | 78% | 1010.8 hPa | 0 mm | 3.58 m/s, 229° | - | - |
| 1777962661 | 13.33° C | 78% | 1010.7 hPa | 0 mm | 3.13 m/s, 223° | - | - |
| 1777962481 | 13.33° C | 78% | 1010.7 hPa | 0 mm | 3.58 m/s, 224° | - | - |
| 1777962300 | 13.33° C | 77% | 1010.8 hPa | 0 mm | 4.02 m/s, 225° | - | - |
* Rain latest hour (hover to see other rain measurements)
** Current wind speed in m/s (hover to see current wind gust speed)